Location: Eaton Estates
(41.3089°N, 82.0057°W)
Time: 19:27:35
(UTC+00:00)

O/OREOS (USA 219) - Pass Details

Date: 24 March 2023
Orbit: 621 x 646 km, 72.0° (Epoch: 22 May)

Event Time Altitude Azimuth Distance (km) Brightness Sun altitude
Rises 10:40:59 0° 172° (S) 2,941 ? -9.0°
Reaches altitude 10° 10:43:32 10° 160° (SSE) 2,035 ? -8.6°
Maximum altitude 10:47:21 26° 103° (ESE) 1,254 ? -7.9°
Drops below altitude 10° 10:51:10 10° 47° (NE) 2,041 ? -7.2°
Sets 10:53:42 0° 35° (NE) 2,951 ? -6.7°
